Regional Weather Roundup
Issued by NWS

Current Version | Previous Version | Text Only | Print | Product List | Glossary On
Versions: 1 2 3 4 5 6 7 8 9 10 11 12 13 14 15 16 17 18 19 20 21 22 23 24 25 26 27 28 29 30 31 32 33 34 35 36 37 38 39 40 41 42 43 44 45 46 47 48 49 50
000
ASUS45 KCYS 200010
RWRWY

WYOMING REGIONAL WEATHER ROUNDUP
NATIONAL WEATHER SERVICE CHEYENNE WY
600 PM MDT SUN APR 19 2015

NOTE:  "FAIR" INDICATES FEW OR NO CLOUDS BELOW 12,000 FEET
WITH NO SIGNIFICANT WEATHER AND/OR OBSTRUCTIONS TO VISIBILITY.

WYZ001-200100-
YELLOWSTONE NATIONAL PARK

CITY           SKY/WX    TMP DP  RH WIND       PRES   REMARKS
LK YELLOWSTONE   N/A     40  18  41 VRB5      30.08S
6HR MIN TEMP:  34; 6HR MAX TEMP:  41;

W YELLOWSTONE  NOT AVBL

$$
WYZ002>013-054>058-071-098>099-200100-
NORTHERN WYOMING

CITY           SKY/WX    TMP DP  RH WIND       PRES   REMARKS
JACKSON        CLOUDY    52  19  28 NW7       30.01S
CODY           CLOUDY    46  19  34 NW12      30.07S
GREYBULL       PTSUNNY   52  15  23 N23       30.04F
6HR MIN TEMP:  51; 6HR MAX TEMP:  56;

WORLAND        PTSUNNY   50  17  27 N15       30.04S
6HR MIN TEMP:  49; 6HR MAX TEMP:  56;

SHERIDAN       FAIR      46  19  34 NW14      30.08S
6HR MIN TEMP:  44; 6HR MAX TEMP:  51;

BUFFALO        PTSUNNY   46  15  28 N25G37    30.06S
6HR MIN TEMP:  45; 6HR MAX TEMP:  48;

GILLETTE       PTSUNNY   45  14  28 N20       30.04S
6HR MIN TEMP:  45; 6HR MAX TEMP:  50;

HULETT         CLOUDY    45  18  33 NW18G28   30.04S
NEWCASTLE      FAIR      43  12  28 NW21G32   30.03S

$$
WYZ014>020-022>026-101>103-200100-
CENTRAL WYOMING

CITY           SKY/WX    TMP DP  RH WIND       PRES   REMARKS
BIG PINEY      CLOUDY    52  14  22 NW16      30.00F
6HR MIN TEMP:  44; 6HR MAX TEMP:  56;

PINEDALE       MOCLDY    50  16  25 NW17      30.01S
DUBOIS         CLOUDY    43  23  45 SE10G20   30.01F
LANDER         CLOUDY    48  27  44 NE8       30.02S
6HR MIN TEMP:  42; 6HR MAX TEMP:  50;

RIVERTON       PTSUNNY   50  19  29 NE12      30.04F
6HR MIN TEMP:  43; 6HR MAX TEMP:  51;

CASPER         CLOUDY    45  20  36 NE13      30.04F
6HR MIN TEMP:  42; 6HR MAX TEMP:  48;

DOUGLAS        FAIR      46  19  34 N18G24    30.05F
6HR MIN TEMP:  40; 6HR MAX TEMP:  48;


$$
WYZ021-027>030-104>119-200100-
SOUTHERN WYOMING

CITY           SKY/WX    TMP DP  RH WIND       PRES   REMARKS
EVANSTON       CLOUDY    56  19  23 W13G23    30.02F
6HR MIN TEMP:  45; 6HR MAX TEMP:  58; 6HR PCP: TRACE;

KEMMERER       FAIR      50  18  27 W15G23    30.02F
FORT BRIDGER   MOCLDY    55  27  33 W14       30.04F
ROCK SPRINGS   CLOUDY    50  26  39 S12       30.01F
6HR MIN TEMP:  40; 6HR MAX TEMP:  51;

DIXON          CLOUDY    47  24  41 W5        30.08F
RAWLINS        CLOUDY    44  22  41 N10       30.05F
6HR MIN TEMP:  39; 6HR MAX TEMP:  48;

SARATOGA       CLOUDY    36  28  75 SW5       30.08S WCI  32
LARAMIE        CLOUDY    34  23  64 N13       30.05S WCI  25
6HR MIN TEMP:  30; 6HR MAX TEMP:  35;

CHEYENNE       FAIR      41  23  48 NW21G26   30.04F
6HR MIN TEMP:  36; 6HR MAX TEMP:  42; 6HR PCP: TRACE;

TORRINGTON     PTSUNNY   49  18  29 NW20G31   30.02S
6HR MIN TEMP:  44; 6HR MAX TEMP:  51;

PINE BLUFFS    FAIR      45  21  39 N21G28    30.03S

$$



USA.gov is the U.S. government's official web portal to all federal, state and local government web resources and services.